Main page
METAR-TAF:

METAR-TAF

Airports :

Oil platform

K14-fa-1c, Netherlands

latitude: 53-16-10N, longitude: 3-37-40E, elevation: 28 m

Current weather observation

The report was made 37 minutes ago, at 07:25 UTC
Wind 11 kt from the East/Southeast
Temperature 3°C
Humidity 65%
Pressure 1017 hPa
Visibility 10 km or more

METAR: EHKV 200725Z AUTO 12011KT 9999 NSC 03/M03 Q1017 W///H///

Time: 09:02 (08:02 UTC)


TAF: missing

Weather observations and forecasts of more than 4000 airports (METAR and TAF reports).

The available stations are represented by yellow and red dots on the map.

Hover mouse over dot to see the name of the station.

Then click to see weather observations and forecasts.

To change the map : click on the green buttons with a black cross to zoom in, on the green button with a dash to zoom out, or on the green arrows for adjacent maps.


METAR-TAF: